Weather History for KGZH - January, 2013

Change the Weather History Date:

Sunday, January 6, 2013

  Actual Average (KPRN) Record (KPRN)
Temperature  
Mean Temperature 46 °F -  
Max Temperature 53 °F 58 °F 78 °F (1936)
Min Temperature 37 °F 36 °F 13 °F (1969)
Degree Days  
Heating Degree Days 19    
Moisture  
Dew Point 39 °F    
Average Humidity 76    
Maximum Humidity 93    
Minimum Humidity 63    
Precipitation  
Precipitation 0.02 in - - ()
Sea Level Pressure  
Sea Level Pressure 30.26 in    
Wind  
Wind Speed 3 mph (North)    
Max Wind Speed 6 mph    
Max Gust Speed -    
Visibility 10 miles    
Events Rain    
Averages and records for this station are not official NWS values.
T = Trace of Precipitation, MM = Missing Value Source: NWS Daily Summary

Daily Weather History Graph

Daily Weather History Graph

Search for Another Location

Airport or City:

Trip Planner

Search our weather history database for the weather conditions in past years. The results will help you decide how hot, cold, wet, or windy it might be!

Date:

Astronomy

Jan. 06, 2013 Rise Set
Actual Time 6:48 AM CST 5:00 PM CST
Civil Twilight 6:21 AM CST 5:26 PM CST
Nautical Twilight 5:51 AM CST 5:57 PM CST
Astronomical Twilight 5:22 AM CST 6:26 PM CST
Moon 1:10 AM CST (1/6) 12:20 PM CST (1/6)
Length of Visible Light 11h 05m
Length of Day
10h 12m
Waning Crescent, 33% of the Moon is Illuminated
Jan 6
Waning Crescent
Jan 11
New
Jan 18
First Quarter
Jan 26
Full
Feb 3
Last Quarter

Hourly Weather History & Observations

Time (CST) Temp. Windchill Dew Point Humidity Pressure Visibility Wind Dir Wind Speed Gust Speed Precip Events Conditions
12:53 AM 48.0 °F - 36.0 °F 63% 30.27 in 10.0 mi Calm Calm - N/A   Overcast
1:53 AM 48.0 °F - 36.0 °F 63% 30.25 in 10.0 mi North 4.6 mph - N/A   Overcast
2:53 AM 46.9 °F - 35.1 °F 63% 30.25 in 10.0 mi North 3.5 mph - N/A   Overcast
3:53 AM 46.9 °F - 36.0 °F 66% 30.26 in 10.0 mi Calm Calm - N/A   Overcast
4:53 AM 46.0 °F 44.8 °F 37.0 °F 71% 30.24 in 10.0 mi ENE 3.5 mph - N/A   Overcast
5:53 AM 46.0 °F 44.8 °F 39.0 °F 76% 30.25 in 10.0 mi NNE 3.5 mph - N/A   Overcast
6:53 AM 46.0 °F - 39.9 °F 79% 30.27 in 10.0 mi Calm Calm - N/A   Overcast
7:53 AM 46.9 °F - 39.9 °F 77% 30.28 in 10.0 mi North 3.5 mph - 0.00 in Rain Light Rain
8:53 AM 46.9 °F - 39.9 °F 77% 30.29 in 10.0 mi NNE 4.6 mph - 0.00 in   Overcast
9:53 AM 46.9 °F - 39.9 °F 77% 30.30 in 10.0 mi Calm Calm - 0.00 in Rain Light Rain
10:53 AM 48.9 °F - 43.0 °F 80% 30.27 in 10.0 mi NNE 5.8 mph - 0.02 in Rain Light Rain
11:53 AM 50.0 °F - 44.1 °F 80% 30.25 in 10.0 mi North 5.8 mph - 0.00 in   Overcast
12:53 PM 50.0 °F - 42.1 °F 74% 30.23 in 10.0 mi NNE 3.5 mph - N/A   Overcast
1:05 PM 51.8 °F - 42.8 °F 71% 30.22 in 10.0 mi NNE 3.5 mph - N/A   Overcast
1:53 PM 51.1 °F - 41.0 °F 68% 30.22 in 10.0 mi North 5.8 mph - N/A   Overcast
2:53 PM 52.0 °F - 42.1 °F 69% 30.23 in 10.0 mi NNW 5.8 mph - N/A   Mostly Cloudy
3:53 PM 53.1 °F - 42.1 °F 66% 30.22 in 10.0 mi North 3.5 mph - N/A   Overcast
4:53 PM 51.1 °F - 41.0 °F 68% 30.22 in 10.0 mi North 3.5 mph - N/A   Scattered Clouds
5:53 PM 46.0 °F 44.8 °F 39.9 °F 79% 30.24 in 10.0 mi NNW 3.5 mph - N/A   Clear
6:53 PM 42.1 °F 40.2 °F 39.0 °F 89% 30.27 in 10.0 mi NNW 3.5 mph - N/A   Clear
7:53 PM 44.1 °F 41.5 °F 39.0 °F 82% 30.28 in 10.0 mi NNW 4.6 mph - N/A   Clear
8:53 PM 43.0 °F - 37.9 °F 82% 30.29 in 10.0 mi Calm Calm - N/A   Clear
9:53 PM 41.0 °F - 37.9 °F 89% 30.30 in 10.0 mi Calm Calm - N/A   Clear
10:53 PM 39.9 °F 37.8 °F 37.0 °F 89% 30.31 in 10.0 mi WNW 3.5 mph - N/A   Clear
11:53 PM 37.9 °F - 36.0 °F 93% 30.31 in 10.0 mi Calm Calm - N/A   Clear